Location: Bukovany
(49.8234°N, 14.6297°E)
Time: 23:07:38
(UTC+00:00)

TIMED - Visible Passes

Search period start: 15 February 2026 00:00
Search period end: 25 February 2026 00:00
Orbit: 581 x 584 km, 74.1° (Epoch: 15 February)

Date Brightness Start Highest point End Pass type
(mag) Time Alt. Az. Time Alt. Az. Time Alt. Az.
21 Feb 7.4 04:54:51 10° NNE 04:56:13 11° NE 04:57:35 10° ENE visible
22 Feb 7.2 04:59:47 10° N 05:02:16 15° NE 05:04:44 10° E visible
23 Feb 7.0 05:05:05 10° N 05:08:15 20° NE 05:11:24 10° E visible
24 Feb 6.6 05:10:33 10° N 05:14:12 26° NE 05:17:48 10° ESE visible
